This demonstration page uses our WeatherBlox Daily Observations layout. Learn more.

Hourly Observations for November 9, 2018

Temp ( °F °C ) Dew Point ( °F °C ) Humidity (%) Winds ( mph kmh ) Pressure ( in mb ) Visibility ( mi km ) Precip ( " mm )
12:15 am 00:15 Clear with Mist and Fog 16 -8.9 16 -9.1 98 98 WSW 3 6 30.45 1031 5 8.04672 0 0
12:35 am 00:35 Clear with Mist and Fog 14 -10.1 13 -10.4 98 98 W 3 6 30.48 1032 5 8.04672 0 0
12:55 am 00:55 Clear 14 -10 13 -10.3 98 98 W 8 13 30.45 1031 10 16.09344 0 0
1:15 am 01:15 Partly Cloudy 15 -9.4 15 -9.6 98 98 W 7 11 30.45 1031 10 16.09344 0 0
1:35 am 01:35 Partly Cloudy 15 -9.2 15 -9.5 98 98 WSW 5 7 30.45 1031 10 16.09344 0 0
1:55 am 01:55 Mostly Cloudy 18 -7.7 18 -7.9 98 98 Calm 30.45 1031 10 16.09344 0 0
2:15 am 02:15 Partly Cloudy 18 -7.9 17 -8.1 98 98 W 10 17 30.45 1031 10 16.09344 0 0
2:35 am 02:35 Mostly Cloudy 19 -7.5 18 -7.7 98 98 W 8 13 30.45 1031 10 16.09344 0 0
2:55 am 02:55 Cloudy 20 -6.7 20 -6.9 99 99 WSW 10 17 30.42 1030 10 16.09344 0 0
3:15 am 03:15 Cloudy 21 -6.1 20 -6.4 98 98 W 12 19 30.42 1030 10 16.09344 0 0
3:35 am 03:35 Mostly Cloudy 21 -6.3 20 -6.8 96 96 NNW 17 28 30.48 1032 10 16.09344 0 0
3:55 am 03:55 Mostly Cloudy 23 -5.1 20 -6.4 91 91 WNW 10 17 30.45 1031 10 16.09344 0 0
4:15 am 04:15 Mostly Cloudy 22 -5.7 20 -6.8 92 92 W 9 15 30.45 1031 10 16.09344 0 0
4:35 am 04:35 Cloudy 23 -4.8 21 -6.1 91 91 WNW 10 17 30.45 1031 10 16.09344 0 0
4:55 am 04:55 Mostly Cloudy 23 -5 20 -6.5 89 89 NW 8 13 30.45 1031 10 16.09344 0 0
5:15 am 05:15 Cloudy 25 -3.8 22 -5.7 87 87 NW 12 19 30.42 1030 10 16.09344 0 0
5:35 am 05:35 Cloudy 26 -3.5 22 -5.3 88 88 NNW 12 19 30.45 1031 10 16.09344 0 0
5:55 am 05:55 Cloudy 26 -3.5 23 -5.2 88 88 NNW 14 22 30.45 1031 10 16.09344 0 0
6:15 am 06:15 Cloudy 26 -3.5 23 -5.2 88 88 N 20 31 30.5 1033 10 16.09344 0 0
6:35 am 06:35 Cloudy 23 -5 14 -10 68 68 NNW 17 28 30.5 1033 10 16.09344 0 0
6:55 am 06:55 Mostly Cloudy 21 -6.2 14 -10 75 75 NNW 18 30 30.56 1035 10 16.09344 0 0
7:15 am 07:15 Partly Cloudy 19 -7 13 -10.7 75 75 NNW 18 30 30.56 1035 10 16.09344 0 0
7:35 am 07:35 Sunny 19 -7.5 13 -10.8 78 78 NNW 15 24 30.56 1035 10 16.09344 0 0
7:55 am 07:55 Sunny 18 -7.6 13 -10.8 78 78 NNW 13 20 30.59 1036 10 16.09344 0 0
8:15 am 08:15 Sunny 18 -7.6 13 -10.6 79 79 NNW 21 33 30.59 1036 7 11.265408 0 0
8:35 am 08:35 Windy with Snow Likely 18 -7.7 13 -10.6 80 80 N 20 31 30.62 1037 7 11.265408 0 0
8:55 am 08:55 Windy with Snow Likely 18 -8 11 -11.4 77 77 N 22 35 30.62 1037 4 6.437376 0 0
9:15 am 09:15 Windy with Snow Likely 17 -8.1 11 -11.7 76 76 N 20 31 30.65 1038 4 6.437376 0 0
9:35 am 09:35 Partly Cloudy 18 -8 12 -11.2 78 78 N 18 30 30.65 1038 7 11.265408 0 0
9:55 am 09:55 Hazy 17 -8.1 10 -12.1 73 73 N 20 31 30.65 1038 5 8.04672 0 0
10:15 am 10:15 Sunny 18 -7.6 10 -12.5 68 68 N 20 31 30.65 1038 7 11.265408 0 0
10:35 am 10:35 Sunny 18 -7.6 10 -12.5 68 68 N 18 30 30.65 1038 7 11.265408 0 0
10:55 am 10:55 Sunny 19 -7.5 9 -13 65 65 N 18 30 30.65 1038 7 11.265408 0 0
11:15 am 11:15 Sunny 19 -7.5 9 -12.9 66 66 N 17 28 30.65 1038 10 16.09344 0 0
11:35 am 11:35 Sunny 19 -7.5 8 -13.2 64 64 N 16 26 30.65 1038 7 11.265408 0 0
11:55 am 11:55 Sunny 18 -7.6 8 -13.6 63 63 N 21 33 30.65 1038 7 11.265408 0 0
12:15 pm 12:15 Sunny 18 -7.6 8 -13.5 63 63 N 16 26 30.65 1038 10 16.09344 0 0
12:35 pm 12:35 Sunny 19 -7.5 8 -13.3 64 64 NNW 17 28 30.65 1038 10 16.09344 0 0
12:55 pm 12:55 Sunny 19 -7.2 8 -13.6 61 61 NNW 12 19 30.65 1038 10 16.09344 0 0
1:15 pm 13:15 Sunny 19 -7.1 7 -13.8 59 59 NNW 14 22 30.65 1038 10 16.09344 0 0
1:35 pm 13:35 Sunny 19 -7 7 -13.8 59 59 N 14 22 30.65 1038 10 16.09344 0 0
1:55 pm 13:55 Sunny 19 -7 7 -14.1 57 57 NNW 15 24 30.65 1038 10 16.09344 0 0
2:15 pm 14:15 Sunny 20 -6.9 6 -14.2 56 56 NNW 13 20 30.65 1038 10 16.09344 0 0
2:35 pm 14:35 Sunny 19 -7 6 -14.3 56 56 N 13 20 30.62 1037 10 16.09344 0 0
2:55 pm 14:55 Sunny 20 -6.8 6 -14.3 56 56 N 14 22 30.62 1037 10 16.09344 0 0
3:15 pm 15:15 Sunny 20 -6.8 7 -14.1 56 56 N 14 22 30.62 1037 10 16.09344 0 0
3:35 pm 15:35 Sunny 20 -6.6 6 -14.6 53 53 NNW 9 15 30.62 1037 10 16.09344 0 0
3:55 pm 15:55 Sunny 19 -7 7 -13.9 58 58 N 8 13 30.62 1037 10 16.09344 0 0
4:15 pm 16:15 Sunny 19 -7.2 7 -13.9 59 59 N 7 11 30.62 1037 10 16.09344 0 0
4:35 pm 16:35 Sunny 19 -7.3 6 -14.2 58 58 N 5 7 30.62 1037 10 16.09344 0 0
4:55 pm 16:55 Sunny 18 -8 7 -13.8 63 63 N 3 6 30.62 1037 10 16.09344 0 0
5:15 pm 17:15 Sunny 17 -8.2 6 -14.5 61 61 N 3 6 30.62 1037 10 16.09344 0 0
5:35 pm 17:35 Clear 14 -9.8 6 -14.2 71 71 Calm 30.65 1038 10 16.09344 0 0
5:55 pm 17:55 Clear 15 -9.7 7 -14.1 71 71 Calm 30.65 1038 10 16.09344 0 0
6:15 pm 18:15 Clear 14 -10 7 -13.8 74 74 Calm 30.65 1038 10 16.09344 0 0
6:35 pm 18:35 Clear 12 -11.2 5 -15 74 74 Calm 30.65 1038 10 16.09344 0 0
6:55 pm 18:55 Clear 10 -12.4 4 -15.3 79 79 ENE 3 6 30.65 1038 10 16.09344 0 0
7:15 pm 19:15 Clear 7 -14 2 -16.6 81 81 E 3 6 30.65 1038 10 16.09344 0 0
7:35 pm 19:35 Clear 8 -13.6 3 -16.1 82 82 SSE 5 7 30.65 1038 10 16.09344 0 0
7:55 pm 19:55 Clear 10 -12.5 4 -15.4 79 79 SSE 6 9 30.65 1038 10 16.09344 0 0
8:15 pm 20:15 Clear 9 -12.6 4 -15.5 79 79 S 6 9 30.65 1038 10 16.09344 0 0
8:35 pm 20:35 Clear 8 -13.5 3 -16.1 81 81 SE 6 9 30.62 1037 10 16.09344 0 0
8:55 pm 20:55 Clear 8 -13.4 3 -16 81 81 SSE 5 7 30.62 1037 10 16.09344 0 0
9:15 pm 21:15 Clear 8 -13.6 3 -16.3 80 80 SSE 5 7 30.62 1037 10 16.09344 0 0
9:35 pm 21:35 Clear 6 -14.3 2 -16.7 82 82 SE 6 9 30.62 1037 10 16.09344 0 0
9:55 pm 21:55 Clear 6 -14.7 2 -16.6 86 86 ESE 10 17 30.59 1036 10 16.09344 0 0
10:15 pm 22:15 Clear 7 -13.9 4 -15.8 86 86 SE 9 15 30.59 1036 10 16.09344 0 0
10:35 pm 22:35 Clear 8 -13.5 3 -16 82 82 SSE 7 11 30.59 1036 10 16.09344 0 0
10:55 pm 22:55 Clear 8 -13.2 4 -15.8 81 81 SSE 7 11 30.59 1036 10 16.09344 0 0
11:15 pm 23:15 Clear 9 -13 4 -15.5 82 82 SSE 6 9 30.59 1036 10 16.09344 0 0
11:35 pm 23:35 Clear 9 -12.9 5 -15.2 83 83 SSE 5 7 30.59 1036 10 16.09344 0 0
11:55 pm 23:55 Clear 10 -12.1 6 -14.6 82 82 S 9 15 30.59 1036 10 16.09344 0 0

Powered by AerisWeather